Location: Naloco
(16.5478°S, 37.1017°E)
Time: 00:55:37
(UTC+00:00)

CZ-3 R/B - Pass Details

Date: 13 August 2020
Orbit: 368 x 10243 km, 28.3° (Epoch: 23 September)

Event Time Altitude Azimuth Distance (km) Brightness Sun altitude
Rises 22:09:45 0° 303° (WNW) 14,822 7.5 -81.6°
Reaches altitude 10° 22:25:27 10° 304° (NW) 14,238 7.2 -78.0°
Enters shadow 22:57:36 31° 304° (WNW) 11,579 6.6 -70.3°
Exits shadow 23:43:41 75° 106° (ESE) 4,383 4.5 -59.3°
Drops below altitude 10° 23:56:30 10° 114° (ESE) 4,762 5.4 -56.2°
Sets 23:58:46 0° 114° (ESE) 5,232 5.7 -55.6°
